User: anonymous   Login
Location: Morehead State University
(38.1872°N, 83.4339°W)
Time: 10:47:21
(UTC-04:00)
Language:

Okean 2 - Orbit

View from above orbital plane
View from above orbital plane
View from above satellite
View from above satellite

Ground track
Ground track

The orbit data is extracted from the following two-line orbital elements,

1 20510U 90018A   17115.82906584 +.00000703 +00000-0 +55893-4 0  9997
2 20510 082.5180 221.7186 0013065 152.9558 327.9693 14.98882447452488
Epoch (UTC): 25 April 2017 19:53:51
Eccentricity: 0.0013065
inclination: 82.5180°
perigee height: 561 km
apogee height: 579 km
right ascension of ascending node: 221.7186°
argument of perigee: 152.9558°
revolutions per day: 14.98882447
mean anomaly at epoch: 327.9693°
orbit number at epoch: 45248

The dashed part of the orbit path shows where the satellite is in the earth's shadow,  

DLR